Location: Warner Observatory
(35.1353°N, 89.5455°W)
Time: 18:30:53
(UTC-06:00)

Envisat - Pass Details

Date: 23 January 2020
Orbit: 764 x 766 km, 98.1° (Epoch: 24 February)

Event Time Altitude Azimuth Distance (km) Brightness Sun altitude
Rises 19:20:58 0° 218° (SW) 3,219 6.9 -25.2°
Reaches altitude 10° 19:25:20 10° 255° (WSW) 2,300 6.5 -26.1°
Maximum altitude 19:26:35 11° 269° (W) 2,242 6.4 -26.3°
Drops below altitude 10° 19:27:51 10° 284° (WNW) 2,304 6.4 -26.6°
Sets 19:32:16 0° 321° (NW) 3,236 6.7 -27.5°
